Regional Weather Roundup
Issued by NWS Cleveland, OH

Home | Current Version | Previous Version | Graphics & Text | Print | Product List | Glossary On
Versions: 1 2 3 4 5 6 7 8 9 10 11 12 13 14 15 16 17 18 19 20 21 22 23 24 25 26 27 28 29 30 31 32 33 34 35 36 37 38 39 40 41 42 43 44 45 46 47 48 49 50
000
ASUS41 KCLE 221510
RWRCLE
OHIO REGIONAL WEATHER ROUNDUP
NATIONAL WEATHER SERVICE WILMINGTON, OH
1100 AM EDT WED MAR 22 2017

NOTE: "FAIR" INDICATES FEW OR NO CLOUDS BELOW 12,000 FEET WITH NO
SIGNIFICANT WEATHER AND/OR OBSTRUCTIONS TO VISIBILITY.

OHZ001>008-015>018-024>027-034-035-043-044-221600-
   NORTHWEST OHIO

CITY           SKY/WX    TMP DP  RH WIND       PRES   REMARKS
DEFIANCE       FAIR      26  11  52 NE10      30.56R WCI  16
FINDLAY        FAIR      28  12  51 NE14      30.53R WCI  17
TOLEDO EXPRESS FAIR      28   9  44 NE12      30.55R WCI  18
TOLEDO EXEC    FAIR      29  13  51 NE12G22   30.56R WCI  19
LIMA           FAIR      26  14  60 N14G21    30.51R WCI  14
$$

OHZ009>014-019>023-028>033-038-089-221600-
   NORTHEAST OHIO

CITY           SKY/WX    TMP DP  RH WIND       PRES   REMARKS
CLE-HOPKINS    CLOUDY    29  11  47 NE16G28   30.53R WCI  17
CLE-LAKEFRONT  PTSUNNY   27  15  61 N17       30.51R WCI  14
CUY CO. ARPT   PTSUNNY   28  14  54 NE12G21   30.50R WCI  18
LORAIN-ELYRIA  CLOUDY    27  13  55 NE15      30.52R WCI  15
ASHTABULA      FAIR      25  10  53 NE13G23   30.49R WCI  14
AKRON-CANTON   LGT SNOW  28  14  55 N15       30.44R WCI  16
WOOSTER        CLOUDY    26  14  60 N16       30.48R WCI  14
MANSFIELD      CLOUDY    26  14  60 N14       30.47R WCI  14
YOUNGSTOWN     PTSUNNY   28  12  51 NW18      30.45R WCI  15
$$

OHZ042-051>053-060>062-070>072-077>081-221600-
  SOUTHWEST OHIO

CITY           SKY/WX    TMP DP  RH WIND       PRES   REMARKS
CINC-COVINGTON FAIR      33  17  51 NE12      30.47R WCI  24
CINC-LUNKEN    FAIR      34  19  54 NE8       30.51R WCI  27
HAMILTON       FAIR      32  18  56 NE10      30.52R WCI  24
DAYTON         FAIR      28  15  58 N15       30.50R WCI  16
WRIGHT-PAT AFB FAIR      29  14  52 NE16      30.50R WCI  18
DAYTON GENERAL FAIR      31  17  56 NE12      30.48R WCI  22
WILMINGTON     FAIR      29  19  66 NE14      30.47R WCI  18
$$

OHZ036-037-039>041-045>050-054>059-063>069-073>076-082>088-221600-
  CENTRAL AND SOUTHEAST OHIO

CITY           SKY/WX    TMP DP  RH WIND       PRES   REMARKS
COLUMBUS       FAIR      33  16  49 NE14      30.48R WCI  23
OSU AIRPORT    FAIR      31  16  54 N12       30.48R WCI  22
BOLTON FIELD   PTSUNNY   30  18  59 N13       30.49R WCI  20
RICKENBACK AFB FAIR      31  15  51 NE15      30.49R WCI  20
NEWARK         FAIR      32  14  47 N9        30.47R WCI  24
MARION         CLOUDY    27  14  58 NE16      30.50R WCI  15
LANCASTER      FAIR      34  17  50 N14       30.48R WCI  25
ZANESVILLE     PTSUNNY   32  16  51 N12       30.46R WCI  23
NEW PHILLY     CLOUDY    28  18  66 NW10      30.47R WCI  19
$$




USA.gov is the U.S. government's official web portal to all federal, state and local government web resources and services.